Wind_Speed
17 17 16 15 14 14 14 14 14 13 12 12 12 12 13 13 12 11 11 11 11 11 10 10 10 9 8 7 8 7 7 7 7 7 7 7 7 7 7 8 9 9 9 9 9 9 9 9 9
16 16 16 15 17 16 16 15 14 14 13 13 12 12 12 12 12 10 11 11 11 11 11 10 10 9 8 8 8 7 7 7 6 6 7 6 6 6 7 8 8 9 9 9 9 9 9 8 8
16 16 16 16 17 17 16 16 15 15 14 14 13 12 12 12 12 11 11 11 11 11 10 10 10 9 8 8 7 6 6 6 6 5 6 6 6 6 7 8 8 8 8 8 9 8 8 8 8
16 16 16 18 18 18 17 16 16 16 14 14 13 13 13 13 12 11 12 12 11 11 10 10 10 9 8 7 6 6 6 6 5 5 6 6 6 6 6 7 8 8 7 7 8 8 7 7 7
16 17 18 18 18 18 17 17 16 15 14 14 14 13 13 13 13 12 11 11 11 11 11 10 9 8 8 7 6 5 5 6 5 5 5 6 5 6 6 7 7 8 7 7 7 7 7 7 7
17 17 19 19 18 17 18 17 15 15 14 15 14 13 13 14 13 12 12 12 12 12 12 11 9 9 8 8 7 6 5 5 5 5 5 5 5 5 5 7 8 8 7 7 7 7 6 6 6
17 17 18 17 17 17 17 16 15 15 14 14 15 13 13 14 14 13 12 13 13 12 12 11 11 10 10 8 7 7 6 6 5 5 4 5 5 4 5 7 7 7 8 8 7 7 7 6 5
16 18 18 17 16 15 15 15 15 14 14 14 15 14 14 14 14 13 13 13 13 12 11 11 11 11 10 9 8 7 7 6 5 5 4 4 5 5 6 7 7 8 8 7 6 7 6 6 5
16 16 17 16 15 14 14 14 14 15 15 15 14 14 13 14 15 14 14 14 13 12 12 11 11 11 10 9 9 9 7 6 5 5 5 4 5 5 6 6 7 7 6 6 6 6 6 5 5
16 16 16 15 13 12 13 14 14 15 14 15 15 14 14 14 15 15 15 14 13 12 12 11 10 10 10 10 10 9 8 7 6 5 5 5 5 5 6 6 6 6 5 5 5 6 6 5 5
14 14 13 13 12 11 12 13 13 14 13 14 15 14 14 15 15 15 15 14 13 13 13 12 11 11 10 10 10 9 8 7 6 5 5 5 5 5 5 6 6 5 5 4 5 5 5 5 4
12 12 11 10 11 11 12 12 12 13 13 14 14 14 13 14 14 15 15 15 14 13 12 12 12 12 11 10 9 9 8 7 6 6 5 4 4 4 5 5 5 5 4 4 3 3 4 3 4
7 8 7 7 10 12 11 12 12 12 12 13 12 12 13 13 13 14 14 14 14 14 13 13 13 12 11 9 8 8 7 7 6 5 4 4 3 4 4 4 4 4 4 4 3 4 4 3 3
3 4 5 6 8 10 10 11 12 12 12 12 12 12 12 12 12 13 13 13 13 13 13 12 12 12 11 10 9 8 8 7 6 5 4 3 3 3 3 3 3 3 3 3 3 3 4 4 4
2 2 3 5 5 7 8 10 11 11 10 11 11 11 11 11 11 12 12 12 12 12 12 12 12 12 12 11 10 8 8 7 6 5 4 4 3 3 2 2 2 2 3 3 3 3 3 4 5
2 2 2 3 4 4 6 8 9 10 9 9 10 9 10 10 10 10 10 10 10 11 11 11 11 11 11 11 10 9 8 7 6 5 5 4 3 2 2 1 1 2 2 3 3 2 3 4 5
4 2 1 1 3 4 6 8 8 9 8 8 8 9 8 9 9 9 10 9 9 10 10 10 10 10 10 10 10 9 8 8 7 6 5 4 2 2 2 1 1 2 3 3 3 4 4 4 5
6 5 4 3 4 5 7 7 8 8 8 8 7 8 8 8 8 8 9 9 9 9 9 9 9 9 9 9 9 9 8 7 6 5 5 5 3 2 1 0 1 2 3 3 4 5 5 5 6
10 9 7 6 5 7 7 7 8 9 9 8 7 7 7 8 8 8 8 7 8 8 8 8 8 8 8 8 8 9 8 7 6 5 5 5 3 2 1 1 2 2 3 3 5 6 6 6 6
12 12 10 10 9 9 10 10 10 10 10 9 8 7 6 7 8 7 7 6 7 7 7 7 7 8 7 7 7 8 8 8 7 6 6 6 4 3 3 3 3 4 4 4 5 6 6 6 7
16 15 14 13 12 13 13 13 11 10 9 9 8 8 6 7 7 6 6 6 6 6 6 6 7 7 6 6 6 7 7 7 7 7 6 6 5 5 4 4 4 4 4 4 5 6 6 6 7
18 16 16 16 16 16 16 16 13 13 13 11 9 9 9 9 8 7 7 6 6 5 5 5 6 6 6 6 6 6 6 6 7 7 7 6 6 6 6 6 6 6 6 6 6 5 6 7 7
20 19 19 19 19 18 18 19 16 15 15 13 11 11 11 11 10 9 8 7 6 6 5 5 5 5 5 5 6 6 6 7 7 7 7 7 7 7 7 7 7 6 7 7 7 7 7 8 8
22 22 22 23 22 21 20 21 17 15 14 15 15 14 13 12 11 10 8 9 8 7 6 6 5 5 5 6 6 7 7 7 8 8 8 8 8 8 8 8 8 8 8 7 8 8 8 9 10
23 24 24 24 24 23 21 22 19 16 16 16 15 15 14 12 12 11 11 11 9 8 8 8 7 6 7 7 7 8 8 8 9 9 9 9 9 9 9 10 9 9 9 9 9 9 9 10 10
23 25 25 25 24 23 22 22 19 18 18 17 16 15 13 13 12 12 11 10 10 9 9 9 8 8 8 9 9 9 9 9 9 10 10 10 10 10 10 10 10 10 11 10 10 10 10 11 12
23 26 25 26 25 26 25 22 18 18 17 17 17 16 16 15 13 11 10 11 11 11 11 11 10 11 11 10 11 11 11 11 11 11 11 11 11 11 11 11 12 12 11 11 11 12 12 13 13
25 26 27 27 27 29 26 23 21 18 18 17 17 17 17 16 13 12 12 13 13 13 13 12 13 13 13 13 12 13 13 13 13 13 13 13 13 13 13 12 12 13 13 13 13 13 13 14 14
24 27 28 28 29 29 28 25 22 20 19 19 18 18 18 17 16 15 16 16 16 15 15 15 15 15 15 15 15 15 15 15 15 15 15 15 15 14 14 14 14 14 15 14 14 14 14 15 15
25 26 27 29 29 29 29 27 24 23 21 20 20 18 18 18 17 17 17 17 17 17 18 18 17 17 17 18 18 18 18 17 17 17 17 17 16 16 16 16 16 16 15 15 15 15 16 16 16
Wind_Direction
85 81 76 71 67 66 63 61 59 59 61 60 57 55 55 56 56 55 58 64 68 71 76 78 86 94 104 113 119 120 120 120 127 132 133 132 133 136 137 137 137 137 138 138 136 136 133 132 130
83 79 75 68 65 61 60 62 61 59 60 62 61 57 55 56 57 58 60 64 68 74 78 78 86 93 94 104 109 113 120 121 126 126 129 130 133 138 138 140 143 142 141 140 140 141 136 133 133
80 76 72 67 60 57 56 60 62 62 61 62 60 57 56 58 60 56 58 63 69 71 74 82 87 90 91 95 98 105 115 123 127 127 130 134 136 141 145 145 146 145 146 144 144 145 142 139 138
81 76 68 61 55 54 54 54 58 61 58 59 58 58 58 59 60 57 57 61 66 70 74 82 84 87 87 90 98 100 109 120 124 129 135 136 140 146 147 150 150 150 150 150 150 149 146 145 143
77 72 65 60 54 53 53 52 55 58 57 59 59 57 60 61 61 59 56 57 63 69 72 76 77 82 81 81 83 87 103 109 117 121 126 134 143 150 154 157 155 152 152 154 154 153 147 148 144
75 68 62 57 55 54 53 53 52 54 55 59 61 60 61 63 62 60 58 61 67 69 70 72 75 74 75 80 83 85 96 106 117 118 121 131 141 149 158 160 160 158 158 156 155 153 147 143 139
71 67 63 58 53 53 55 56 55 53 55 59 63 59 61 62 58 58 58 60 65 67 70 69 69 65 69 76 82 86 91 98 113 120 119 123 128 130 143 155 156 158 163 159 157 154 149 147 146
69 68 61 56 50 51 52 55 57 57 56 59 61 60 61 62 60 58 59 62 62 65 69 66 65 64 67 69 75 84 89 95 102 109 119 126 127 127 132 143 150 157 162 165 165 162 160 148 146
71 70 63 54 47 46 49 53 59 61 58 57 57 59 59 60 61 61 63 62 60 61 61 60 61 61 67 70 72 79 85 88 94 104 112 123 131 136 141 147 150 157 163 169 173 170 171 170 166
72 70 60 48 44 43 49 52 54 57 55 56 55 56 56 59 61 62 65 67 64 63 60 57 57 59 64 67 70 74 78 80 87 100 115 122 133 141 147 149 156 160 162 166 171 177 181 186 183
75 67 59 44 38 41 49 53 53 54 52 52 52 53 55 58 58 59 62 64 65 63 58 57 55 58 62 66 69 71 75 79 87 100 116 125 129 140 149 157 164 169 170 171 175 182 189 194 195
78 72 60 41 37 38 39 47 53 54 50 47 47 51 54 54 58 60 62 63 63 62 57 52 56 56 59 62 64 65 70 75 81 88 100 118 128 134 148 158 166 172 178 182 188 194 200 203 213
83 75 72 55 44 36 31 35 45 44 45 43 41 43 49 55 56 58 61 60 58 59 59 57 57 55 54 54 57 59 64 69 74 82 91 105 122 129 143 156 168 178 181 191 202 214 227 239 238
100 77 72 66 49 36 29 27 30 35 41 43 43 43 46 50 51 53 56 56 55 56 57 56 56 55 54 53 57 56 57 60 67 74 92 99 104 115 138 149 169 186 193 194 203 220 240 250 248
116 98 86 54 39 24 23 19 20 25 33 40 43 40 40 46 49 49 50 52 51 50 51 51 51 51 50 49 53 54 56 61 65 68 76 85 90 101 121 145 158 177 196 215 213 222 237 246 242
162 128 90 34 15 11 5 358 10 14 22 29 34 32 34 39 41 43 42 46 45 45 47 46 47 47 46 46 49 54 60 65 67 70 71 81 88 98 103 141 186 197 210 220 222 241 250 250 246
199 218 207 327 325 335 338 336 346 358 359 12 19 20 26 33 33 33 36 39 40 42 43 44 43 44 42 42 48 51 54 58 63 62 64 68 75 87 94 138 196 224 229 236 241 244 252 257 253
217 240 251 272 301 307 312 317 326 332 342 355 0 6 11 18 22 23 27 31 34 36 36 38 37 38 37 38 45 44 45 50 52 48 53 55 54 61 56 201 238 247 249 246 245 252 253 251 252
227 242 247 250 268 279 292 298 304 316 322 335 339 346 357 3 11 14 17 25 27 28 29 33 34 35 35 35 37 37 36 39 39 34 35 32 29 30 23 330 278 280 279 265 255 255 256 255 257
231 239 238 242 252 272 282 282 293 298 308 319 328 331 337 349 0 4 3 10 18 22 23 24 26 29 30 29 29 30 30 28 26 27 24 20 13 4 357 338 315 302 297 287 280 270 264 260 258
231 232 239 246 253 264 269 270 275 281 296 305 310 322 326 325 345 349 345 349 357 5 12 16 16 20 23 22 25 24 19 19 20 19 15 10 5 358 351 341 334 316 305 297 292 282 277 272 268
223 228 236 243 250 254 257 265 269 280 286 291 294 308 323 323 324 324 322 320 336 338 347 359 4 7 12 16 14 13 11 10 11 9 4 360 352 344 334 329 323 312 302 296 293 288 278 270 270
223 226 232 239 248 251 253 260 263 268 273 281 290 298 313 308 311 309 304 301 312 318 323 333 346 352 356 3 5 1 358 354 353 355 354 350 344 337 332 322 314 306 301 299 296 286 278 270 270
224 230 233 237 244 248 250 258 259 263 271 275 282 289 299 296 294 295 291 293 296 299 305 317 318 328 336 342 345 347 345 344 343 341 341 340 337 334 329 320 312 305 298 296 292 288 279 271 269
229 232 237 239 243 245 247 255 260 264 269 271 273 279 287 289 283 280 287 286 286 288 288 295 302 312 320 321 322 327 328 329 332 331 328 330 328 326 325 320 310 301 297 294 287 286 282 277 276
234 236 238 243 245 245 247 254 258 259 264 267 269 275 280 282 277 273 278 280 283 285 284 288 296 298 304 307 309 313 316 319 322 325 323 323 323 317 315 313 307 299 296 296 290 286 286 283 283
236 238 241 245 246 248 251 254 253 254 256 261 268 272 273 270 267 266 268 270 276 279 282 288 292 293 296 300 304 304 306 311 313 313 313 312 312 311 309 306 302 299 296 296 294 290 290 287 283
241 241 240 242 247 250 253 252 252 251 249 256 265 269 270 270 268 265 264 269 270 272 277 281 287 292 295 296 298 298 300 303 304 305 305 306 306 304 303 302 300 293 293 291 290 288 288 287 282
240 240 240 242 246 250 255 253 251 253 251 253 255 262 269 268 270 268 270 267 269 272 277 280 283 287 290 292 292 293 293 295 297 298 298 299 300 300 298 295 294 292 289 288 288 286 288 288 285
240 241 242 243 246 251 255 253 250 252 251 249 251 257 262 266 268 267 268 267 266 270 273 276 279 283 286 287 287 289 289 290 292 293 294 296 295 294 295 293 291 290 289 288 287 286 287 287 285
Height
5895 5894 5895 5896 5896 5895 5893 5893 5892 5892 5892 5890 5889 5889 5888 5888 5888 5889 5885 5883 5882 5882 5881 5881 5881 5881 5881 5881 5882 5882 5883 5884 5885 5885 5886 5887 5887 5888 5888 5889 5889 5890 5891 5892 5892 5893 5893 5894 5894
5897 5896 5897 5897 5896 5895 5895 5895 5894 5893 5893 5892 5891 5891 5890 5889 5888 5887 5885 5884 5884 5883 5883 5883 5882 5883 5883 5883 5884 5884 5884 5885 5886 5887 5887 5888 5888 5889 5889 5890 5890 5891 5892 5893 5893 5894 5894 5895 5895
5899 5899 5900 5898 5897 5897 5897 5896 5896 5895 5894 5894 5893 5892 5892 5891 5889 5888 5887 5886 5886 5885 5885 5884 5884 5884 5885 5885 5885 5886 5886 5886 5887 5888 5888 5889 5889 5890 5890 5891 5891 5892 5893 5893 5894 5895 5895 5896 5896
5902 5902 5902 5900 5898 5899 5898 5898 5897 5897 5896 5895 5895 5894 5893 5892 5891 5889 5888 5887 5887 5886 5886 5886 5886 5886 5886 5887 5887 5887 5887 5888 5888 5889 5889 5889 5890 5890 5891 5891 5892 5893 5893 5894 5895 5896 5896 5897 5897
5904 5904 5903 5901 5900 5900 5900 5900 5899 5899 5898 5897 5897 5896 5895 5894 5892 5891 5890 5889 5888 5888 5888 5887 5887 5887 5887 5888 5888 5888 5888 5889 5889 5889 5889 5890 5890 5890 5891 5891 5892 5893 5894 5895 5896 5896 5897 5897 5898
5906 5906 5905 5903 5903 5902 5902 5902 5901 5901 5900 5899 5898 5898 5896 5895 5894 5893 5892 5890 5890 5889 5889 5889 5889 5889 5889 5889 5889 5889 5889 5889 5889 5890 5890 5890 5890 5890 5890 5891 5892 5893 5894 5895 5896 5897 5898 5898 5899
5908 5907 5906 5905 5905 5905 5905 5905 5904 5903 5902 5901 5900 5899 5898 5897 5896 5894 5893 5892 5892 5891 5891 5891 5891 5890 5890 5890 5890 5890 5890 5890 5890 5890 5890 5890 5890 5889 5888 5889 5892 5893 5894 5895 5897 5898 5898 5899 5900
5908 5909 5908 5908 5907 5907 5908 5907 5906 5905 5904 5902 5901 5901 5900 5899 5897 5896 5895 5894 5894 5893 5893 5893 5892 5892 5891 5891 5891 5891 5890 5890 5890 5891 5891 5891 5891 5890 5889 5891 5893 5893 5894 5896 5897 5898 5899 5899 5900
5910 5911 5910 5910 5910 5910 5909 5909 5908 5907 5906 5905 5904 5903 5901 5900 5899 5898 5897 5896 5895 5895 5894 5894 5894 5893 5893 5892 5892 5891 5891 5891 5891 5891 5891 5891 5891 5891 5892 5892 5894 5895 5895 5897 5897 5898 5899 5900 5900
5911 5912 5913 5913 5913 5912 5911 5911 5909 5908 5908 5907 5905 5904 5903 5902 5901 5900 5899 5898 5897 5897 5896 5896 5895 5894 5894 5893 5892 5892 5892 5891 5891 5891 5891 5891 5892 5892 5893 5894 5895 5896 5896 5897 5898 5898 5899 5900 5900
5913 5914 5914 5915 5914 5914 5913 5913 5911 5910 5909 5908 5907 5906 5905 5904 5903 5901 5900 5900 5899 5899 5898 5897 5897 5896 5895 5894 5893 5893 5892 5892 5892 5892 5892 5892 5892 5893 5893 5894 5895 5896 5897 5897 5898 5899 5899 5900 5900
5915 5915 5916 5916 5915 5915 5914 5914 5913 5913 5912 5910 5909 5908 5907 5906 5905 5903 5902 5902 5901 5900 5899 5898 5898 5897 5896 5895 5894 5894 5893 5892 5892 5892 5892 5892 5893 5893 5894 5895 5895 5896 5896 5897 5898 5899 5899 5899 5900
5915 5916 5916 5916 5916 5915 5915 5915 5914 5914 5914 5912 5911 5910 5909 5908 5907 5906 5905 5904 5903 5902 5901 5900 5899 5898 5897 5896 5895 5894 5894 5893 5892 5892 5892 5892 5893 5893 5894 5894 5895 5896 5896 5897 5898 5898 5899 5899 5899
5916 5916 5916 5916 5916 5916 5916 5916 5916 5915 5915 5914 5913 5912 5911 5910 5909 5908 5906 5905 5904 5903 5902 5902 5901 5899 5898 5897 5896 5895 5894 5893 5893 5893 5893 5893 5893 5894 5894 5895 5895 5896 5896 5897 5897 5898 5898 5899 5899
5916 5917 5918 5917 5917 5917 5917 5917 5917 5916 5915 5915 5915 5914 5913 5912 5910 5909 5908 5907 5906 5905 5903 5902 5901 5900 5899 5898 5897 5896 5895 5894 5894 5894 5894 5894 5894 5894 5894 5895 5895 5896 5896 5896 5897 5897 5897 5897 5898
5916 5917 5917 5918 5918 5918 5919 5918 5917 5917 5916 5916 5916 5915 5914 5913 5912 5911 5910 5908 5907 5906 5905 5903 5902 5901 5900 5899 5898 5897 5896 5895 5894 5894 5894 5894 5894 5894 5895 5895 5895 5895 5895 5896 5896 5896 5896 5897 5897
5916 5917 5917 5917 5917 5917 5918 5917 5917 5917 5917 5916 5916 5916 5915 5914 5913 5912 5911 5909 5908 5907 5906 5904 5903 5902 5901 5900 5899 5897 5896 5895 5895 5895 5894 5894 5894 5894 5895 5895 5895 5895 5895 5895 5895 5895 5896 5896 5896
5915 5915 5915 5916 5916 5916 5916 5917 5917 5917 5916 5916 5916 5916 5915 5914 5914 5912 5911 5910 5909 5908 5907 5905 5904 5903 5901 5900 5899 5898 5897 5896 5896 5895 5895 5895 5895 5894 5894 5894 5894 5894 5894 5894 5894 5894 5894 5895 5895
5913 5913 5914 5915 5915 5916 5915 5915 5916 5916 5915 5916 5915 5915 5914 5914 5913 5912 5911 5910 5909 5908 5907 5906 5905 5903 5902 5901 5900 5899 5898 5897 5896 5896 5895 5895 5894 5894 5894 5894 5893 5893 5893 5893 5893 5893 5893 5893 5893
5910 5911 5912 5913 5913 5914 5914 5914 5914 5915 5915 5915 5914 5914 5913 5913 5912 5912 5911 5910 5909 5908 5907 5906 5905 5904 5902 5901 5900 5900 5899 5898 5897 5896 5895 5894 5894 5893 5893 5893 5892 5892 5892 5892 5892 5892 5891 5891 5891
5907 5909 5910 5910 5911 5911 5912 5913 5912 5913 5913 5912 5913 5912 5911 5912 5912 5911 5911 5910 5909 5908 5907 5906 5905 5904 5903 5902 5901 5900 5899 5898 5897 5896 5895 5894 5893 5892 5892 5892 5891 5891 5890 5890 5890 5889 5889 5889 5889
5903 5905 5906 5907 5908 5908 5910 5909 5910 5910 5910 5910 5910 5911 5910 5911 5911 5910 5910 5909 5909 5908 5907 5906 5905 5904 5903 5901 5900 5899 5899 5898 5897 5896 5895 5894 5892 5892 5891 5890 5890 5889 5888 5888 5887 5887 5887 5887 5886
5899 5901 5902 5903 5904 5905 5906 5906 5908 5908 5907 5908 5908 5908 5909 5909 5909 5909 5908 5908 5907 5906 5906 5905 5904 5903 5902 5901 5900 5899 5898 5897 5896 5895 5894 5893 5891 5890 5889 5888 5888 5887 5886 5886 5885 5885 5885 5884 5884
5895 5897 5898 5899 5900 5901 5902 5902 5903 5904 5904 5905 5905 5905 5905 5906 5906 5906 5907 5906 5905 5905 5904 5903 5903 5902 5901 5900 5899 5898 5897 5896 5895 5894 5893 5891 5890 5889 5888 5887 5886 5885 5884 5883 5883 5882 5881 5881 5881
5891 5893 5893 5894 5895 5896 5898 5897 5899 5900 5900 5900 5901 5901 5901 5901 5902 5903 5904 5904 5903 5903 5902 5902 5901 5901 5900 5899 5898 5897 5896 5895 5894 5892 5891 5890 5888 5887 5885 5884 5883 5882 5881 5880 5880 5879 5878 5877 5877
5886 5887 5889 5890 5890 5892 5893 5892 5895 5896 5896 5896 5897 5897 5897 5898 5899 5900 5901 5901 5901 5901 5900 5900 5899 5899 5898 5897 5896 5895 5894 5893 5891 5890 5889 5887 5886 5885 5883 5882 5880 5879 5878 5877 5876 5875 5875 5874 5873
5880 5881 5883 5885 5885 5886 5887 5888 5890 5890 5891 5891 5892 5893 5893 5894 5895 5896 5897 5898 5898 5898 5898 5897 5897 5897 5895 5895 5894 5893 5892 5890 5889 5888 5886 5885 5883 5882 5880 5879 5878 5876 5875 5874 5873 5871 5871 5870 5869
5875 5876 5878 5878 5879 5879 5881 5882 5885 5886 5886 5887 5888 5888 5889 5890 5890 5891 5893 5893 5894 5894 5894 5894 5894 5893 5892 5891 5891 5890 5889 5887 5886 5885 5883 5881 5880 5878 5877 5876 5874 5873 5872 5870 5869 5868 5867 5866 5865
5868 5870 5871 5872 5873 5874 5875 5879 5880 5881 5881 5882 5883 5883 5884 5885 5886 5887 5888 5889 5890 5889 5890 5890 5890 5889 5888 5887 5887 5886 5885 5883 5882 5881 5879 5878 5876 5874 5873 5872 5870 5869 5867 5866 5865 5864 5863 5862 5861
5861 5863 5864 5866 5867 5867 5868 5873 5874 5875 5876 5876 5877 5878 5879 5880 5881 5882 5883 5883 5884 5885 5885 5885 5885 5884 5884 5883 5882 5881 5880 5879 5878 5877 5875 5874 5872 5870 5869 5867 5866 5865 5863 5862 5861 5860 5858 5857 5856